EW9980 Weather Reports


time (UTC)temp
C
wind
direction
speed
KPH
gust
KPH
rain 1hr
cm
rain 24hr
cm
rain mn
cm
humidity
%
barometer
mb
20260502190056 16 243 11.3 27.4 0.00 0.00 0.00 14 1016.7
20260502184553 16 299 4.8 20.9 0.00 0.00 0.00 14 1016.9
20260502183051 16 210 6.4 19.3 0.00 0.00 0.00 11 1017.3
20260502181551 15 187 6.4 17.7 0.00 0.00 0.00 14 1017.5
20260502163029 11 346 0.0 8.0 0.00 0.00 0.00 27 1019.1
20260502161525 10 162 3.2 8.0 0.00 0.00 0.00 28 1019.3
20260502151610 6 111 1.6 6.4 0.00 0.00 0.00 40 1020.1
20260502123054 -5 101 0.0 1.6 0.00 0.00 0.00 67 1020.7
20260502121542 -5 101 0.0 1.6 0.00 0.00 0.00 69 1020.6
20260502114537 -5 104 0.0 3.2 0.00 0.00 0.00 65 1020.5
20260502113039 -4 36 0.0 3.2 0.00 0.00 0.00 63 1020.5
20260502111545 -3 12 0.0 3.2 0.00 0.00 0.00 64 1020.6
20260502110033 -4 72 0.0 1.6 0.00 0.00 0.00 64 1020.7
20260502104531 -3 15 0.0 3.2 0.00 0.00 0.00 64 1020.6
20260502103029 -4 89 0.0 0.0 0.00 0.00 0.00 64 1020.6
20260502101529 -3 89 0.0 1.6 0.00 0.00 0.00 64 1020.6
20260502091520 -3 120 0.0 3.2 0.00 0.00 0.00 58 1020.2
20260502070059 0 18 3.2 6.4 0.00 0.00 0.00 50 1020.1
20260502064600 0 355 0.0 3.2 0.00 0.00 0.00 49 1020.3
20260502063114 0 98 0.0 1.6 0.00 0.00 0.00 47 1020.2
20260502061553 0 8 0.0 3.2 0.00 0.00 0.00 47 1020.3
20260502060049 0 94 0.0 3.2 0.00 0.00 0.00 47 1020.4
20260502054547 1 24 3.2 11.3 0.00 0.00 0.00 43 1020.2
20260502053052 2 18 3.2 9.7 0.00 0.00 0.00 43 1020.1
20260502051537 2 352 4.8 9.7 0.00 0.00 0.00 42 1020.0
20260502050030 2 328 3.2 9.7 0.00 0.00 0.00 41 1019.9
20260502044527 3 3 3.2 11.3 0.00 0.00 0.00 40 1019.8
20260502043022 2 15 4.8 8.0 0.00 0.00 0.00 41 1019.7
20260502041519 3 343 6.4 12.9 0.00 0.00 0.00 40 1019.5
20260502040013 2 15 0.0 6.4 0.00 0.00 0.00 42 1019.4
20260502034509 2 346 0.0 3.2 0.00 0.00 0.00 42 1019.1
20260502033005 4 90 0.0 1.6 0.00 0.00 0.00 39 1018.9
20260502031600 3 103 1.6 4.8 0.00 0.00 0.00 41 1018.5
20260502030056 6 36 0.0 6.4 0.00 0.00 0.00 34 1018.1
20260502024557 8 14 1.6 4.8 0.00 0.00 0.00 29 1017.9
20260502023047 9 354 3.2 4.8 0.00 0.00 0.00 28 1018.0
20260502021543 12 276 0.0 3.2 0.00 0.00 0.00 25 1018.0
20260502020041 13 250 1.6 6.4 0.00 0.00 0.00 14 1017.8
20260502014534 15 266 3.2 8.0 0.00 0.00 0.00 14 1017.8
20260502013033 15 224 4.8 9.7 0.00 0.00 0.00 11 1017.9
20260502011526 16 292 3.2 9.7 0.00 0.00 0.00 10 1017.9
20260502010022 16 240 6.4 12.9 0.00 0.00 0.00 9 1018.2
20260502004518 16 245 8.0 12.9 0.00 0.00 0.00 9 1018.2
20260502003015 16 219 6.4 12.9 0.00 0.00 0.00 8 1018.2
20260502001512 16 242 9.7 17.7 0.00 0.00 0.00 8 1018.3
20260502000007 16 257 11.3 17.7 0.00 0.00 0.00 9 1018.4
20260501234600 16 274 0.0 14.5 0.00 0.00 0.00 10 1018.6
20260501233055 16 146 1.6 14.5 0.00 0.00 0.00 9 1018.7
20260501231600 16 257 6.4 16.1 0.00 0.00 0.00 9 1018.8
20260501230056 16 246 1.6 14.5 0.00 0.00 0.00 12 1019.1
20260501224556 16 270 4.8 16.1 0.00 0.00 0.00 11 1019.3
20260501223047 15 309 4.8 14.5 0.00 0.00 0.00 11 1019.3
20260501221559 15 229 1.6 8.0 0.00 0.00 0.00 14 1019.5
20260501220038 15 311 1.6 11.3 0.00 0.00 0.00 11 1019.7
20260501214537 15 277 8.0 16.1 0.00 0.00 0.00 11 1019.8
20260501213033 15 319 4.8 14.5 0.00 0.00 0.00 16 1020.2
20260501211535 15 310 6.4 17.7 0.00 0.00 0.00 12 1020.3
20260501210031 15 260 8.0 16.1 0.00 0.00 0.00 11 1020.4
20260501204532 14 291 6.4 19.3 0.00 0.00 0.00 13 1020.6
20260501203027 14 126 1.6 11.3 0.00 0.00 0.00 12 1020.7
20260501201526 14 289 3.2 14.5 0.00 0.00 0.00 18 1020.9
20260501200023 13 160 6.4 14.5 0.00 0.00 0.00 15 1021.0
20260501194524 13 165 6.4 14.5 0.00 0.00 0.00 15 1021.2
20260501193033 13 288 8.0 14.5 0.00 0.00 0.00 17 1021.3
20260501191517 12 308 4.8 11.3 0.00 0.00 0.00 18 1021.6